IU3OVK-13 Weather Reports


time (UTC)temp
C
wind
direction
speed
KPH
gust
KPH
rain 1hr
cm
rain 24hr
cm
rain mn
cm
humidity
%
barometer
mb
20260502195414 16 0.0 0.0 0.00 0.00 0.00 99 1015.4
20260502194354 16 0.0 0.0 0.00 0.00 0.00 99 1015.3
20260502193334 16 0.0 0.0 0.00 0.00 0.00 99 1015.1
20260502192314 17 0.0 0.0 0.00 0.00 0.00 99 1015.0
20260502191254 17 0.0 0.0 0.00 0.00 0.00 99 1014.5
20260502190234 17 0.0 0.0 0.00 0.00 0.00 99 1014.7
20260502185213 17 0.0 0.0 0.00 0.00 0.00 99 1014.6
20260502184153 18 0.0 0.0 0.00 0.00 0.00 99 1014.6
20260502183133 18 0.0 0.0 0.00 0.00 0.00 99 1014.4
20260502182113 18 0.0 0.0 0.00 0.00 0.00 99 1014.2
20260502181053 19 0.0 0.0 0.00 0.00 0.00 97 1013.9
20260502162731 22 0.0 0.0 0.00 0.00 0.00 79 1013.2
20260502160651 22 0.0 0.0 0.00 0.00 0.00 79 1013.4
20260502121928 23 0.0 0.0 0.00 0.00 0.00 73 1015.4
20260502120909 22 0.0 0.0 0.00 0.00 0.00 73 1015.6
20260502115847 21 0.0 0.0 0.00 0.00 0.00 77 1015.9
20260502113807 22 0.0 0.0 0.00 0.00 0.00 77 1016.0
20260502112747 20 0.0 0.0 0.00 0.00 0.00 77 1016.4
20260502111727 23 0.0 0.0 0.00 0.00 0.00 73 1016.4
20260502110708 21 0.0 0.0 0.00 0.00 0.00 72 1017.1
20260502105646 23 0.0 0.0 0.00 0.00 0.00 70 1017.4
20260502103606 23 0.0 0.0 0.00 0.00 0.00 69 1018.0
20260502102546 24 0.0 0.0 0.00 0.00 0.00 67 1018.4
20260502091324 40 0.0 0.0 0.00 0.00 0.00 53 1016.2
20260502090303 40 0.0 0.0 0.00 0.00 0.00 53 1016.2
20260502065856 29 0.0 0.0 0.00 0.00 0.00 73 1016.0
20260502063815 26 0.0 0.0 0.00 0.00 0.00 80 1018.3
20260502062755 26 0.0 0.0 0.00 0.00 0.00 82 1016.8
20260502061735 26 0.0 0.0 0.00 0.00 0.00 86 1009.6
20260501212438 11 0.0 0.0 0.00 0.00 0.00 99 1020.9
20260501211419 11 0.0 0.0 0.00 0.00 0.00 99 1021.1
20260501210357 11 0.0 0.0 0.00 0.00 0.00 99 1020.8
20260501205337 11 0.0 0.0 0.00 0.00 0.00 99 1021.2
20260501204317 12 0.0 0.0 0.00 0.00 0.00 99 1020.6
20260501203258 12 0.0 0.0 0.00 0.00 0.00 99 1020.3
20260501202237 12 0.0 0.0 0.00 0.00 0.00 99 1020.3
20260501201217 13 0.0 0.0 0.00 0.00 0.00 99 1020.3